• In Hungary
  • List of Countries
  • For 7 days
  • Water Temperature
  • Satellite Maps
  • Weather Map
  • News
  • Weather Widgets
  • user-avatar
    Login

    Hourly Weather Starokizganovo

    Today, 26 May, Saturday

    Time Temperature Precipitation Wind Pressure Humidity
    00:00 +3°C° 0 mm 5 mps 755 mmHg 58%
    01:00 +3°C° 0 mm 5 mps 755 mmHg 59%
    02:00 +2°C° 0 mm 6 mps 755 mmHg 59%
    03:00 +1°C° 0 mm 6 mps 756 mmHg 58%
    04:00 +1°C° 0 mm 6 mps 756 mmHg 58%
    05:00 +1°C° 0 mm 6 mps 757 mmHg 57%
    06:00 +2°C° 0 mm 7 mps 757 mmHg 56%
    07:00 +3°C° 0 mm 7 mps 757 mmHg 56%
    08:00 +4°C° 0 mm 7 mps 758 mmHg 52%
    09:00 +5°C° 0 mm 7 mps 758 mmHg 49%
    10:00 +6°C° 0 mm 8 mps 758 mmHg 46%
    11:00 +7°C° 0 mm 8 mps 758 mmHg 44%
    12:00 +8°C° 0 mm 7 mps 759 mmHg 43%
    13:00 +9°C° 0 mm 7 mps 759 mmHg 41%
    14:00 +10°C° 0 mm 7 mps 759 mmHg 41%
    15:00 +10°C° 0 mm 7 mps 759 mmHg 41%
    16:00 +10°C° 0 mm 7 mps 759 mmHg 41%
    17:00 +10°C° 0 mm 5 mps 759 mmHg 45%
    18:00 +11°C° 0 mm 4 mps 759 mmHg 50%
    19:00 +10°C° 0 mm 3 mps 759 mmHg 55%
    20:00 +9°C° 0 mm 3 mps 759 mmHg 57%
    21:00 +7°C° 0 mm 2 mps 760 mmHg 59%
    22:00 +6°C° 0 mm 2 mps 760 mmHg 61%
    23:00 +5°C° 0 mm 2 mps 760 mmHg 62%

    Tomorrow, 27 May, Sunday

    Time Temperature Precipitation Wind Pressure Humidity
    00:00 +5°C° 0 mm 2 mps 760 mmHg 63%
    01:00 +4°C° 0 mm 2 mps 760 mmHg 65%
    02:00 +4°C° 0 mm 2 mps 760 mmHg 66%
    03:00 +4°C° 0 mm 2 mps 759 mmHg 68%
    04:00 +4°C° 0 mm 2 mps 759 mmHg 70%
    05:00 +4°C° 0 mm 3 mps 759 mmHg 68%
    06:00 +7°C° 0 mm 3 mps 758 mmHg 67%
    07:00 +8°C° 0 mm 4 mps 758 mmHg 65%
    08:00 +10°C° 0 mm 5 mps 757 mmHg 62%
    09:00 +13°C° 0 mm 6 mps 756 mmHg 58%
    10:00 +15°C° 0 mm 7 mps 756 mmHg 54%
    11:00 +16°C° 0 mm 7 mps 755 mmHg 55%
    12:00 +17°C° 0 mm 8 mps 754 mmHg 55%
    13:00 +20°C° 0 mm 8 mps 753 mmHg 56%
    14:00 +20°C° 0.3 mm 8 mps 752 mmHg 59%
    15:00 +18°C° 0.3 mm 9 mps 751 mmHg 61%
    16:00 +18°C° 0.3 mm 9 mps 750 mmHg 64%
    17:00 +17°C° 0.8 mm 8 mps 750 mmHg 71%
    18:00 +16°C° 0.8 mm 8 mps 749 mmHg 78%
    19:00 +14°C° 0.8 mm 7 mps 749 mmHg 85%
    20:00 +13°C° 0.7 mm 6 mps 748 mmHg 88%
    21:00 +13°C° 0.7 mm 5 mps 748 mmHg 91%
    22:00 +12°C° 0.7 mm 4 mps 748 mmHg 94%
    23:00 +11°C° 1 mm 4 mps 747 mmHg 93%

    Day after tomorrow, 28 May, Monday

    Time Temperature Precipitation Wind Pressure Humidity
    00:00 +10°C° 1 mm 4 mps 747 mmHg 93%
    01:00 +8°C° 1 mm 4 mps 747 mmHg 92%
    02:00 +7°C° 0 mm 4 mps 747 mmHg 93%
    03:00 +7°C° 0 mm 3 mps 747 mmHg 93%
    04:00 +5°C° 0 mm 3 mps 747 mmHg 93%
    05:00 +6°C° 0.1 mm 4 mps 747 mmHg 90%
    06:00 +6°C° 0.1 mm 4 mps 748 mmHg 86%
    07:00 +7°C° 0.1 mm 5 mps 748 mmHg 82%
    08:00 +7°C° 0.2 mm 5 mps 748 mmHg 76%
    09:00 +8°C° 0.2 mm 5 mps 748 mmHg 70%
    10:00 +10°C° 0.2 mm 4 mps 749 mmHg 63%
    11:00 +9°C° 0.4 mm 5 mps 749 mmHg 63%
    12:00 +9°C° 0.4 mm 6 mps 749 mmHg 63%
    13:00 +9°C° 0.4 mm 7 mps 749 mmHg 62%
    14:00 +9°C° 0.3 mm 7 mps 749 mmHg 60%
    15:00 +9°C° 0.3 mm 7 mps 750 mmHg 58%
    16:00 +9°C° 0.3 mm 7 mps 750 mmHg 56%
    17:00 +8°C° 0.1 mm 7 mps 750 mmHg 57%
    18:00 +8°C° 0.1 mm 6 mps 750 mmHg 58%
    19:00 +7°C° 0.1 mm 5 mps 751 mmHg 59%
    20:00 +6°C° 0 mm 5 mps 751 mmHg 61%
    21:00 +5°C° 0 mm 4 mps 751 mmHg 63%
    22:00 +4°C° 0 mm 4 mps 752 mmHg 65%
    23:00 +3°C° 0 mm 4 mps 752 mmHg 66%

    29 May, Tuesday

    Time Temperature Precipitation Wind Pressure Humidity
    00:00 +1°C° 0 mm 4 mps 752 mmHg 67%
    01:00 +1°C° 0 mm 4 mps 752 mmHg 69%
    02:00 0°C° 0 mm 4 mps 752 mmHg 70%
    03:00 0°C° 0 mm 4 mps 752 mmHg 72%
    04:00 -1°C° 0 mm 4 mps 752 mmHg 73%
    05:00 0°C° 0 mm 4 mps 752 mmHg 70%
    06:00 +3°C° 0 mm 4 mps 752 mmHg 67%
    07:00 +3°C° 0 mm 5 mps 752 mmHg 64%
    08:00 +5°C° 0.1 mm 5 mps 751 mmHg 61%
    09:00 +5°C° 0.1 mm 6 mps 751 mmHg 58%
    10:00 +7°C° 0.1 mm 6 mps 751 mmHg 55%
    11:00 +7°C° 0.1 mm 6 mps 750 mmHg 54%
    12:00 +8°C° 0.1 mm 6 mps 750 mmHg 53%
    13:00 +8°C° 0.1 mm 6 mps 750 mmHg 51%
    14:00 +8°C° 0 mm 5 mps 750 mmHg 51%
    15:00 +8°C° 0 mm 5 mps 750 mmHg 51%
    16:00 +9°C° 0 mm 5 mps 749 mmHg 50%
    17:00 +8°C° 0 mm 4 mps 749 mmHg 54%
    18:00 +9°C° 0 mm 3 mps 749 mmHg 58%
    19:00 +9°C° 0 mm 2 mps 749 mmHg 62%
    20:00 +7°C° 0 mm 2 mps 749 mmHg 64%
    21:00 +6°C° 0 mm 2 mps 749 mmHg 66%
    22:00 +4°C° 0 mm 2 mps 749 mmHg 68%
    23:00 +4°C° 0 mm 2 mps 749 mmHg 70%

    30 May, Wednesday

    Time Temperature Precipitation Wind Pressure Humidity
    00:00 +3°C° 0 mm 2 mps 749 mmHg 71%
    01:00 +2°C° 0 mm 2 mps 749 mmHg 73%
    02:00 +2°C° 0 mm 2 mps 749 mmHg 74%
    03:00 +1°C° 0 mm 2 mps 749 mmHg 76%
    04:00 +1°C° 0 mm 2 mps 749 mmHg 77%
    05:00 +2°C° 0 mm 2 mps 749 mmHg 73%
    06:00 +3°C° 0 mm 3 mps 750 mmHg 68%
    07:00 +5°C° 0 mm 3 mps 750 mmHg 64%
    08:00 +6°C° 0.1 mm 4 mps 750 mmHg 59%
    09:00 +7°C° 0.1 mm 4 mps 749 mmHg 54%
    10:00 +8°C° 0.1 mm 5 mps 749 mmHg 49%
    11:00 +9°C° 0.1 mm 5 mps 749 mmHg 48%
    12:00 +9°C° 0.1 mm 5 mps 749 mmHg 47%
    13:00 +9°C° 0.1 mm 5 mps 749 mmHg 46%
    14:00 +9°C° 0 mm 5 mps 749 mmHg 46%
    15:00 +9°C° 0 mm 5 mps 749 mmHg 47%
    16:00 +10°C° 0 mm 4 mps 749 mmHg 47%
    17:00 +10°C° 0 mm 4 mps 749 mmHg 51%
    18:00 +9°C° 0 mm 3 mps 749 mmHg 55%
    19:00 +9°C° 0 mm 2 mps 749 mmHg 59%
    20:00 +7°C° 0 mm 2 mps 749 mmHg 62%
    21:00 +6°C° 0 mm 1 mps 749 mmHg 64%
    22:00 +4°C° 0 mm 0 mps 749 mmHg 67%
    23:00 +4°C° 0 mm 1 mps 749 mmHg 68%

    31 May, Thursday

    Time Temperature Precipitation Wind Pressure Humidity
    00:00 +4°C° 0 mm 1 mps 749 mmHg 68%
    01:00 +4°C° 0 mm 1 mps 749 mmHg 68%
    02:00 +3°C° 0 mm 2 mps 749 mmHg 69%
    03:00 +3°C° 0 mm 2 mps 748 mmHg 71%
    04:00 +3°C° 0 mm 2 mps 748 mmHg 72%
    05:00 +3°C° 0 mm 3 mps 747 mmHg 71%
    06:00 +5°C° 0 mm 4 mps 747 mmHg 71%
    07:00 +6°C° 0 mm 5 mps 746 mmHg 70%
    08:00 +6°C° 0.7 mm 5 mps 745 mmHg 74%
    09:00 +7°C° 0.7 mm 6 mps 744 mmHg 79%
    10:00 +6°C° 0.7 mm 7 mps 743 mmHg 83%
    11:00 +6°C° 1.2 mm 7 mps 742 mmHg 85%
    12:00 +6°C° 1.2 mm 7 mps 741 mmHg 88%
    13:00 +6°C° 1.2 mm 7 mps 740 mmHg 90%
    14:00 +8°C° 0.9 mm 7 mps 740 mmHg 88%
    15:00 +9°C° 0.9 mm 7 mps 739 mmHg 86%
    16:00 +10°C° 0.9 mm 7 mps 739 mmHg 83%
    17:00 +9°C° 0.4 mm 6 mps 738 mmHg 81%
    18:00 +8°C° 0.4 mm 6 mps 738 mmHg 79%
    19:00 +7°C° 0.4 mm 6 mps 738 mmHg 77%
    20:00 +7°C° 0.2 mm 6 mps 738 mmHg 79%
    21:00 +5°C° 0.2 mm 6 mps 738 mmHg 81%
    22:00 +4°C° 0.2 mm 6 mps 738 mmHg 83%
    23:00 +3°C° 0.1 mm 6 mps 737 mmHg 85%
    Show more